Jacksonville, TX

6:43 AM CST on November 18, 2017 (GMT -0600)
Cherokee County

Weather History for KJSO - February, 2013

Change the Weather History Date:

Thursday, February 21, 2013

  Actual Average (KOCH) Record (KOCH)
Temperature  
Mean Temperature 57 °F -  
Max Temperature 67 °F 60 °F 80 °F (2005)
Min Temperature 47 °F 41 °F 30 °F (2014)
Degree Days  
Heating Degree Days 8    
Growing Degree Days 7 (Base 50)    
Moisture  
Dew Point 41 °F    
Average Humidity 61    
Maximum Humidity 100    
Minimum Humidity 31    
Precipitation  
Precipitation 0.04 in - - ()
Sea Level Pressure  
Sea Level Pressure 29.77 in    
Wind  
Wind Speed 8 mph (SSE)    
Max Wind Speed 16 mph    
Max Gust Speed 25 mph    
Visibility 9 miles    
Events Rain , Thunderstorm    
Averages and records for this station are not official NWS values.
T = Trace of Precipitation, MM = Missing Value Source: NWS Daily Summary

Daily Weather History Graph

Daily Weather History Graph

Search for Another Location

Airport or City:

Trip Planner

Search our weather history database for the weather conditions in past years. The results will help you decide how hot, cold, wet, or windy it might be!

Date:

Astronomy

Feb. 21, 2013 Rise Set
Actual Time 6:56 AM CST 6:12 PM CST
Civil Twilight 6:31 AM CST 6:37 PM CST
Nautical Twilight 6:03 AM CST 7:05 PM CST
Astronomical Twilight 5:35 AM CST 7:34 PM CST
Moon 2:37 PM CST (2/21) 3:52 AM CST (2/21)
Length of Visible Light 12h 05m
Length of Day
11h 16m
Waxing Gibbous, 84% of the Moon is Illuminated
Feb 21
Waxing Gibbous
Feb 25
Full
Mar 4
Last Quarter
Mar 11
New
Mar 19
First Quarter

Hourly Weather History & Observations

Time (CST) Temp. Dew Point Humidity Pressure Visibility Wind Dir Wind Speed Gust Speed Precip Events Conditions
12:15 AM 47.3 °F 32.9 °F 57% 29.86 in 10.0 mi East 10.4 mph 16.1 mph N/A   Overcast
12:35 AM 47.3 °F 32.9 °F 57% 29.84 in 10.0 mi East 8.1 mph - N/A   Overcast
12:55 AM 47.3 °F 33.3 °F 58% 29.84 in 10.0 mi East 6.9 mph - N/A   Overcast
1:15 AM 47.3 °F 33.8 °F 59% 29.84 in 10.0 mi East 9.2 mph - N/A   Overcast
1:35 AM 47.5 °F 34.2 °F 60% 29.84 in 10.0 mi East 5.8 mph - N/A   Overcast
1:55 AM 48.2 °F 34.7 °F 60% 29.82 in 10.0 mi East 6.9 mph - N/A   Overcast
2:15 AM 48.6 °F 35.2 °F 60% 29.82 in 10.0 mi ESE 8.1 mph - N/A   Overcast
2:35 AM 48.6 °F 37.0 °F 64% 29.81 in 10.0 mi East 6.9 mph 18.4 mph N/A   Overcast
3:15 AM 48.6 °F 37.4 °F 65% 29.79 in 10.0 mi East 8.1 mph 16.1 mph N/A   Overcast
3:35 AM 48.4 °F 37.6 °F 66% 29.78 in 10.0 mi East 9.2 mph 16.1 mph N/A   Overcast
3:55 AM 48.2 °F 38.1 °F 68% 29.77 in 10.0 mi East 8.1 mph 16.1 mph N/A   Overcast
4:15 AM 48.2 °F 39.2 °F 71% 29.77 in 10.0 mi East 8.1 mph - N/A   Overcast
4:35 AM 48.2 °F 40.1 °F 74% 29.77 in 10.0 mi East 4.6 mph - N/A Rain Light Rain
4:55 AM 48.6 °F 40.5 °F 74% 29.76 in 10.0 mi East 8.1 mph - N/A Rain Light Rain
5:15 AM 48.0 °F 42.3 °F 80% 29.75 in 10.0 mi East 8.1 mph - N/A Rain Light Rain
5:35 AM 47.8 °F 43.7 °F 86% 29.75 in 10.0 mi East 6.9 mph - N/A   Light Drizzle
5:55 AM 47.8 °F 44.6 °F 89% 29.75 in 10.0 mi East 8.1 mph - N/A   Drizzle
6:15 AM 48.2 °F 45.5 °F 90% 29.75 in 10.0 mi East 8.1 mph - N/A   Overcast
6:35 AM 48.7 °F 46.0 °F 90% 29.75 in 10.0 mi East 9.2 mph - N/A   Overcast
6:55 AM 48.7 °F 46.6 °F 92% 29.74 in 10.0 mi East 8.1 mph 16.1 mph N/A   Overcast
7:15 AM 48.2 °F 46.4 °F 93% 29.74 in 10.0 mi East 4.6 mph - N/A   Drizzle
7:35 AM 47.8 °F 46.4 °F 95% 29.72 in 7.0 mi East 4.6 mph - 0.02 in Rain Light Rain
8:15 AM 48.4 °F 47.8 °F 98% 29.74 in 5.0 mi ESE 5.8 mph - N/A   Overcast
8:35 AM 49.1 °F 48.7 °F 99% 29.74 in 3.0 mi ESE 4.6 mph - N/A   Light Drizzle
9:35 AM 54.0 °F 54.0 °F 100% 29.72 in 2.5 mi SE 6.9 mph - N/A   Overcast
9:55 AM 55.0 °F 55.0 °F 100% 29.71 in 4.0 mi SE 10.4 mph 16.1 mph N/A   Overcast
10:15 AM 56.3 °F 56.3 °F 100% 29.70 in 4.0 mi SSE 11.5 mph 20.7 mph N/A Rain Light Rain
10:35 AM 57.2 °F 57.2 °F 100% 29.71 in 5.0 mi SSE 11.5 mph - 0.01 in Rain Rain
11:15 AM 59.0 °F 59.0 °F 100% 29.70 in 10.0 mi SSE 11.5 mph 16.1 mph 0.01 in Rain , Thunderstorm Light Thunderstorms and Rain
11:35 AM 59.9 °F 59.9 °F 100% 29.70 in 4.0 mi South 8.1 mph - 0.01 in Thunderstorm Unknown
11:55 AM 61.0 °F 61.0 °F 100% 29.70 in 7.0 mi South 8.1 mph - 0.01 in   Overcast
12:15 PM 61.2 °F 61.2 °F 100% 29.71 in 7.0 mi West 8.1 mph 24.2 mph N/A   Overcast
12:35 PM 60.8 °F 60.1 °F 97% 29.71 in 10.0 mi West 10.4 mph 18.4 mph N/A   Overcast
12:55 PM 61.9 °F 59.4 °F 91% 29.70 in 10.0 mi WNW 16.1 mph 23.0 mph N/A   Overcast
1:15 PM 64.0 °F 56.8 °F 77% 29.69 in 10.0 mi West 10.4 mph 24.2 mph N/A   Scattered Clouds
1:35 PM 64.0 °F 50.5 °F 61% 29.69 in 10.0 mi West 15.0 mph 25.3 mph N/A   Clear
1:55 PM 65.3 °F 46.8 °F 51% 29.70 in 10.0 mi West 15.0 mph 23.0 mph N/A   Clear
2:15 PM 66.2 °F 47.8 °F 52% 29.70 in 10.0 mi WNW 12.7 mph 21.9 mph N/A   Clear
2:35 PM 67.1 °F 45.3 °F 45% 29.71 in 10.0 mi West 11.5 mph 21.9 mph N/A   Clear
2:55 PM 66.2 °F 43.3 °F 44% 29.71 in 10.0 mi West 8.1 mph 20.7 mph N/A   Scattered Clouds
3:15 PM 66.0 °F 41.5 °F 41% 29.71 in 10.0 mi West 13.8 mph 21.9 mph N/A   Overcast
3:35 PM 65.8 °F 41.5 °F 41% 29.72 in 10.0 mi West 9.2 mph 20.7 mph N/A   Overcast
3:55 PM 66.9 °F 42.4 °F 41% 29.72 in 10.0 mi West 10.4 mph - N/A   Scattered Clouds
4:15 PM 67.1 °F 37.2 °F 33% 29.73 in 10.0 mi West 10.4 mph 21.9 mph N/A   Scattered Clouds
4:35 PM 67.1 °F 38.5 °F 35% 29.72 in 10.0 mi West 9.2 mph - N/A   Clear
4:55 PM 67.1 °F 37.4 °F 34% 29.73 in 10.0 mi West 9.2 mph - N/A   Clear
5:15 PM 66.9 °F 35.6 °F 31% 29.75 in 10.0 mi West 11.5 mph 16.1 mph N/A   Clear
5:35 PM 66.2 °F 36.1 °F 33% 29.76 in 10.0 mi West 8.1 mph - N/A   Clear
5:55 PM 65.7 °F 36.5 °F 34% 29.76 in 10.0 mi WSW 5.8 mph - N/A   Clear
6:15 PM 64.2 °F 36.3 °F 36% 29.77 in 10.0 mi WSW 4.6 mph - N/A   Clear
6:35 PM 62.6 °F 35.8 °F 37% 29.78 in 10.0 mi West 4.6 mph - N/A   Clear
6:55 PM 61.5 °F 33.1 °F 34% 29.80 in 10.0 mi West 5.8 mph - N/A   Clear
7:15 PM 61.3 °F 30.2 °F 31% 29.80 in 10.0 mi West 3.5 mph - N/A   Clear
7:35 PM 60.3 °F 29.8 °F 32% 29.81 in 10.0 mi Calm Calm - N/A   Clear
7:55 PM 59.2 °F 29.3 °F 32% 29.82 in 10.0 mi Calm Calm - N/A   Clear
8:15 PM 57.6 °F 30.2 °F 35% 29.83 in 10.0 mi Calm Calm - N/A   Clear
8:35 PM 58.1 °F 29.1 °F 33% 29.84 in 10.0 mi Calm Calm - N/A   Clear
8:55 PM 56.5 °F 29.8 °F 36% 29.85 in 10.0 mi SSW 3.5 mph - N/A   Clear
9:15 PM 56.5 °F 28.9 °F 35% 29.85 in 10.0 mi Calm Calm - N/A   Clear
9:35 PM 56.3 °F 28.8 °F 35% 29.86 in 7.0 mi Calm Calm - N/A   Clear
9:55 PM 56.5 °F 28.6 °F 34% 29.87 in 10.0 mi Calm Calm - N/A   Clear
10:15 PM 56.3 °F 29.1 °F 35% 29.88 in 10.0 mi WSW 3.5 mph - N/A   Clear
10:35 PM 55.6 °F 28.9 °F 36% 29.88 in 10.0 mi West 3.5 mph - N/A   Clear
10:55 PM 57.2 °F 27.3 °F 32% 29.89 in 10.0 mi West 3.5 mph - N/A   Clear
11:15 PM 54.0 °F 29.5 °F 39% 29.90 in 10.0 mi Calm Calm - N/A   Clear
11:35 PM 51.4 °F 30.6 °F 45% 29.90 in 10.0 mi Calm Calm - N/A   Clear
11:55 PM 50.5 °F 31.5 °F 48% 29.91 in 10.0 mi Calm Calm - N/A   Clear